TITAN 3C TRANSTAGE DEB, 38704

Orbit data source: Space-Track

TITAN 3C TRANSTAGE DEB, 38704 is space debris in GEO originally from a launch on Thu, 26 Sep 1968 UTC launched from the Air Force Eastern Test Range (AFETR). Debris objects in space refer to the collection of defunct objects orbiting the Earth. Examples of debris include non-operational satellites, rocket bodies, and fragments generated from explosions, collisions, or faulty payload assembly.

Not visible in the next 10 days
Identifier
38704, 1968-081AE
Orbit
GEO
Country
Flag of USUS
Related business
Manufacturer
Unknown
Mission
Spacecraft
Bus & Motor
Unknown
Mass
Unknown
Launch date (UTC)
1968-09-26 (57 years ago)
Launch vehicle
Unknown
Launch site
Air Force Eastern Test Range (AFETR)
Object type
Payload
Rocket body
Debris
Shape & HBR
Unknown
Radar Cross Section
Small (<0.1 m²)

Expand to show TLE details & history
Last TLE update: 2 days ago

TLE from 2 days ago
0 TITAN 3C TRANSTAGE DEB
1 38704U 68081AE  25258.16009213  .00000021  00000-0  00000-0 0  9992
2 38704   3.4762  64.5889 0209195 212.4745 146.5275  1.02194662 73198
Epoch: 2025-09-15T03:50Z
TLE epoch observation values (Epoch: 2025-09-15T03:50:31.96Z)
Latitude
0.00001°
Longitude
12.8761°
Altitude
35,983.841 km
Speed
3.041 km/s
True Right ascension
04h 19m 30s
True Declination
0° 00' 00"
Sunlit
Object was in daylight at epoch
Visualization orbit readout
Latitude
Unknown
Longitude
Unknown
Altitude
Unknown
Speed
Unknown
Apparent Right ascension
Unknown
Apparent Declination
Unknown
Sunlit
N/A
Visualization observer readout
Local Sidereal Time
12:24:03
Azimuth
Unknown
Elevation
Unknown
Doppler factor
Unknown
Orbital elements
Apogee altitude
36,128.079 km
Perigee altitude
34,386.103 km
Semi-major axis
41,635.228 km
Eccentricity
0.02092
Inclination
3.4762°
RAAN
64.5889°
Arg. of periapsis
212.4745°
True anomaly
147.82129°
Mean anomaly
146.5275°
Eccentric anomaly
147.17719°
Mean motion
0.25548 °/min
Orbital period
1,409.13 mins
BSTAR
0
Loading maneuver chart data...
Computing Atmospheric mass density...

Documentation

Showing up to 5 results
|